time_stamp(utc),avg(mph),gust(mph),direction(deg),12m_air_temp(f),sonic_u(cm/s),sonic_v(cm/s),sonic_w(cm/s),pressure,2m_air_temp(f),pyranometer(W/m^2)
"2021-08-10 00:02:39+00",10.4,12.4,,74,249,-377,-13,1020.08,74,0
"2021-08-10 00:07:39+00",9.1,11.1,,74,193,-338,-24,1020.22,73.9,0
"2021-08-10 00:12:39+00",10.2,12.2,,73.9,339,-282,-34,1020.27,73.9,0
"2021-08-10 00:17:39+00",11.0,13.0,,73.9,354,-323,-48,1020.19,73.8,0
"2021-08-10 00:22:39+00",11.3,12.3,,73.8,335,-363,-43,1020.14,73.8,0
"2021-08-10 00:27:39+00",9.7,10.7,,73.8,222,-353,-19,1020.18,73.7,0
"2021-08-10 00:32:39+00",10.7,11.7,,73.8,289,-354,-45,1020.19,73.7,0
"2021-08-10 00:37:39+00",9.2,11.2,,73.7,180,-333,-59,1020.25,73.6,0
"2021-08-10 00:42:39+00",9.3,10.3,,73.7,217,-303,-62,1020.22,73.6,0
"2021-08-10 00:47:39+00",9.2,10.2,,73.6,198,-313,-68,1020.32,73.5,0
"2021-08-10 00:52:39+00",8.8,9.8,,73.6,176,-293,-65,1020.4,73.4,0
"2021-08-10 00:57:39+00",7.6,8.6,,73.5,119,-258,-68,1020.46,73.3,0
"2021-08-10 01:02:39+00",6.2,7.2,,73.5,77,-213,-56,1020.56,73.3,0
"2021-08-10 01:07:39+00",6.1,8.1,,73.5,62,-205,-52,1020.63,73.3,0
"2021-08-10 01:12:39+00",6.5,7.5,,73.5,98,-197,-66,1020.68,73.2,0
"2021-08-10 01:17:39+00",5.6,6.6,,73.5,49,-172,-56,1020.77,73.2,0
"2021-08-10 01:22:39+00",5.4,6.4,,73.4,90,-170,-40,1020.86,73.2,0
"2021-08-10 01:27:39+00",4.8,4.8,,73.4,133,-93,-49,1020.94,73.1,0
"2021-08-10 01:32:39+00",5.1,6.1,,73.3,106,-130,-52,1020.91,73.1,0
"2021-08-10 01:37:39+00",4.4,5.4,,73.3,2,-167,-40,1020.99,73,0
"2021-08-10 01:42:39+00",6.1,6.1,,73.4,-2,-235,-57,1020.91,72.9,0
"2021-08-10 01:47:39+00",5.7,6.7,,73.4,21,-213,-59,1020.9,72.9,0
"2021-08-10 01:52:39+00",5.1,6.1,,73.4,21,-186,-49,1020.89,72.9,0
"2021-08-10 01:57:39+00",5.5,6.5,,73.4,83,-203,-38,1020.89,72.9,0
"2021-08-10 02:02:39+00",4.6,5.6,,73.3,75,-155,-31,1020.82,73,0
"2021-08-10 02:07:39+00",5.1,6.1,,73.3,75,-166,-44,1020.96,72.9,0
"2021-08-10 02:12:39+00",5.4,6.4,,73.2,87,-178,-47,1020.92,72.9,0
"2021-08-10 02:17:39+00",4.3,5.3,,73.1,20,-167,-33,1020.99,72.8,0
"2021-08-10 02:22:39+00",5.3,6.3,,73.3,-43,-222,-32,1020.93,72.8,0
"2021-08-10 02:27:39+00",3.0,4.0,,73.4,-42,-107,-16,1020.92,72.9,0
"2021-08-10 02:32:39+00",4.4,5.4,,73.5,-93,-179,-26,1020.92,72.9,0
"2021-08-10 02:37:39+00",5.0,6.0,,73.8,-132,-190,-44,1021.02,73,0
"2021-08-10 02:42:39+00",5.3,6.3,,74,-179,-202,-37,1020.91,73.1,0
"2021-08-10 02:47:39+00",5.7,6.7,,74.3,-211,-197,-49,1020.96,73.1,0
"2021-08-10 02:52:39+00",4.9,5.9,,74.4,-149,-184,-41,1020.93,72.9,0
"2021-08-10 02:57:39+00",4.5,6.5,,74.4,-65,-168,-38,1020.95,72.8,0
"2021-08-10 03:02:39+00",4.3,5.3,,74.7,-137,-157,-24,1020.87,73.1,0
"2021-08-10 03:07:39+00",4.9,5.9,,74.5,-82,-179,-30,1020.87,73.2,0
"2021-08-10 03:12:39+00",4.5,5.5,,74.3,57,-161,-33,1020.76,73.3,0
"2021-08-10 03:17:39+00",6.1,7.1,,74,-34,-255,-39,1020.83,73.1,0
"2021-08-10 03:22:39+00",5.5,6.5,,73.9,-37,-201,-54,1020.83,73.1,0
"2021-08-10 03:27:39+00",6.3,7.3,,73.9,-10,-221,-58,1020.92,73.1,0
"2021-08-10 03:32:39+00",6.2,8.2,,73.8,-56,-235,-45,1020.96,73.2,0
"2021-08-10 03:37:39+00",6.1,7.1,,73.7,-28,-233,-50,1020.92,73.2,0
"2021-08-10 03:42:39+00",5.8,7.8,,73.7,-36,-207,-55,1020.92,73.1,0
"2021-08-10 03:47:39+00",5.2,7.2,,73.7,-25,-184,-53,1020.9,73.1,0
"2021-08-10 03:52:39+00",4.8,5.8,,73.6,-9,-176,-49,1020.96,73.1,0
"2021-08-10 03:57:39+00",4.8,5.8,,73.5,26,-162,-48,1021.09,73.1,0
"2021-08-10 04:02:39+00",4.8,5.8,,73.4,101,-128,-45,1021.11,72.9,0
"2021-08-10 04:07:39+00",6.0,7.0,,73.1,184,-90,-55,1020.99,72.6,0
"2021-08-10 04:12:39+00",5.5,6.5,,73,126,-142,-51,1021.01,72.4,0
"2021-08-10 04:17:39+00",5.3,6.3,,72.9,103,-148,-48,1021.03,72.4,0
"2021-08-10 04:22:39+00",5.4,6.4,,73,85,-192,-35,1021.05,72.3,0
"2021-08-10 04:27:39+00",5.3,6.3,,73,37,-189,-52,1021.17,72.3,0
"2021-08-10 04:32:39+00",5.7,6.7,,73,-3,-199,-56,1021.05,72.3,0
"2021-08-10 04:37:39+00",6.6,7.6,,73.2,-45,-248,-59,1020.94,72.4,0
"2021-08-10 04:42:39+00",6.5,7.5,,73.4,6,-239,-74,1020.82,72.6,0
"2021-08-10 04:47:39+00",6.3,8.3,,73.4,2,-230,-53,1020.82,72.7,0
"2021-08-10 04:52:39+00",5.4,6.4,,73.4,2,-202,-47,1020.9,72.8,0
"2021-08-10 04:57:39+00",4.4,5.4,,73.4,-7,-159,-43,1020.93,72.8,0
"2021-08-10 05:02:39+00",3.9,4.9,,73.4,-3,-134,-27,1021,72.9,0
"2021-08-10 05:07:39+00",3.1,5.1,,73.4,-49,-118,-38,1021.05,72.9,0
"2021-08-10 05:12:39+00",3.5,4.5,,73.5,-132,-112,-35,1021.11,73,0
"2021-08-10 05:17:39+00",4.8,5.8,,73.6,-183,-137,-37,1021.24,73.1,0
"2021-08-10 05:22:39+00",4.6,5.6,,73.7,-153,-183,-37,1021.24,73.2,0
"2021-08-10 05:27:39+00",5.9,6.9,,73.8,-249,-142,-38,1021.3,73.2,0
"2021-08-10 05:32:39+00",8.9,10.9,,73.5,-385,-199,-41,1021.18,73.3,0
"2021-08-10 05:37:39+00",3.4,4.4,,73.2,78,-113,-17,1021.01,72.8,0
"2021-08-10 05:42:39+00",4.2,6.2,,73.1,79,-138,-35,1021.01,72.7,0
"2021-08-10 05:47:39+00",4.0,5.0,,73.4,58,-133,-31,1020.93,72.8,0
"2021-08-10 05:52:39+00",1.4,2.4,,73.4,21,29,4,1020.97,72.8,0
"2021-08-10 05:57:39+00",5.8,6.8,,73.1,5,195,-9,1021.12,72.7,0
"2021-08-10 06:02:39+00",8.3,9.3,,72.8,-19,355,-40,1021.22,72.3,0
"2021-08-10 06:07:39+00",5.3,6.3,,72.6,191,126,-31,1020.93,72.2,0
"2021-08-10 06:12:39+00",5.7,5.7,,72.6,218,113,-28,1020.84,72.1,0
"2021-08-10 06:17:39+00",6.4,7.4,,72.6,203,176,-35,1020.91,72,0
"2021-08-10 06:22:39+00",6.1,7.1,,72.5,204,165,-38,1020.85,71.9,0
"2021-08-10 06:27:39+00",4.3,5.3,,72.6,166,69,-24,1020.84,71.8,0
"2021-08-10 06:32:39+00",4.9,5.9,,72.8,209,-4,-28,1020.72,71.8,0
"2021-08-10 06:37:39+00",4.5,5.5,,73,189,-5,-30,1020.64,71.7,0
"2021-08-10 06:42:39+00",5.2,5.2,,73.1,218,-32,-44,1020.59,71.8,0
"2021-08-10 06:47:39+00",3.4,4.4,,73,122,-54,-20,1020.53,71.8,0
"2021-08-10 06:52:39+00",2.4,3.4,,73,75,-39,-6,1020.59,71.8,0
"2021-08-10 06:57:39+00",0.7,1.7,,73,23,0,-6,1020.5,71.8,0
"2021-08-10 07:02:39+00",3.0,3.0,,73,-64,84,-9,1020.67,71.9,0
"2021-08-10 07:07:39+00",3.3,4.3,,72.9,-34,105,-24,1020.63,72,0
"2021-08-10 07:12:39+00",3.0,4.0,,72.9,-43,95,-19,1020.71,72,0
"2021-08-10 07:17:39+00",3.8,3.8,,72.9,-127,87,-13,1020.8,72,0
"2021-08-10 07:22:39+00",5.3,6.3,,72.6,110,177,-37,1020.64,71.9,0
"2021-08-10 07:27:39+00",6.7,6.7,,72.4,213,174,-44,1020.64,71.8,0
"2021-08-10 07:32:39+00",4.2,5.2,,72.4,80,124,-37,1020.78,71.5,0
"2021-08-10 07:37:39+00",4.3,5.3,,72.6,-131,89,-27,1020.89,71.4,0
"2021-08-10 07:42:39+00",5.5,6.5,,72.9,-83,184,-33,1020.86,71.5,0
"2021-08-10 07:47:39+00",3.3,4.3,,72.7,-38,102,-22,1020.99,71.5,0
"2021-08-10 07:52:39+00",0.0,0.0,,72.5,-19,31,-4,1020.92,71.4,0
"2021-08-10 07:57:39+00",0.0,0.0,,72.5,28,-11,-2,1020.9,71.4,0
"2021-08-10 08:02:39+00",1.9,2.9,,72.5,70,-22,-9,1020.92,71.6,0
"2021-08-10 08:07:39+00",3.1,3.1,,72.5,128,-69,-19,1020.91,71.7,0
"2021-08-10 08:12:39+00",3.2,3.2,,72.4,137,-22,-6,1021.01,71.7,0
"2021-08-10 08:17:39+00",2.6,3.6,,72.4,87,45,-20,1021.02,71.7,0
"2021-08-10 08:22:39+00",4.7,4.7,,72.3,211,-47,-19,1020.85,71.8,0
"2021-08-10 08:27:39+00",4.7,4.7,,72.3,201,-66,-21,1021.04,71.7,0
"2021-08-10 08:32:39+00",3.6,4.6,,72.2,159,-45,-12,1021.09,71.7,0
"2021-08-10 08:37:39+00",4.7,4.7,,72,207,-12,-16,1021.21,71.6,0
"2021-08-10 08:42:39+00",4.9,5.9,,72.2,169,-128,-11,1020.94,71.5,0
"2021-08-10 08:47:39+00",4.3,5.3,,72.3,127,-107,-10,1020.85,71.5,0
"2021-08-10 08:52:39+00",4.0,5.0,,72.2,101,-95,-10,1020.85,71.5,0
"2021-08-10 08:57:39+00",5.5,6.5,,72.2,152,-137,-13,1020.91,71.6,0
"2021-08-10 09:02:39+00",7.4,8.4,,72.2,275,-198,-28,1020.81,71.7,0
"2021-08-10 09:07:39+00",7.7,8.7,,72.1,280,-200,-30,1020.76,71.6,0
"2021-08-10 09:12:39+00",6.2,8.2,,72.1,247,-168,-21,1020.87,71.6,0
"2021-08-10 09:17:39+00",9.0,11.0,,72.2,363,-259,-25,1020.75,71.8,0
"2021-08-10 09:22:39+00",9.5,11.5,,72.2,405,-203,-52,1020.76,71.8,0
"2021-08-10 09:27:39+00",8.8,10.8,,72.3,335,-156,-38,1020.73,71.8,0
"2021-08-10 09:32:39+00",10.2,12.2,,72.3,409,-196,-25,1020.72,71.8,0
"2021-08-10 09:37:39+00",10.0,12.0,,72.3,405,-196,-15,1020.73,71.8,0
"2021-08-10 09:42:39+00",9.2,11.2,,72.3,381,-157,-8,1020.76,71.8,0
"2021-08-10 09:47:39+00",11.6,12.6,,72.3,452,-244,-30,1020.76,71.7,0
"2021-08-10 09:52:39+00",11.5,13.5,,72.3,452,-225,-29,1020.81,71.7,0
"2021-08-10 09:57:39+00",11.3,12.3,,72.3,432,-244,-31,1020.87,71.8,0
"2021-08-10 10:02:39+00",10.0,12.0,,72.4,329,-291,-28,1020.95,71.9,0
"2021-08-10 10:07:39+00",11.6,13.6,,72.6,319,-402,-27,1020.92,72,0
"2021-08-10 10:12:39+00",12.9,14.9,,72.7,345,-465,-43,1020.91,72.1,0
"2021-08-10 10:17:39+00",11.5,13.5,,72.8,284,-423,-27,1021.01,72.2,0
"2021-08-10 10:22:39+00",10.0,11.0,,72.9,256,-366,-23,1020.99,72.3,0
"2021-08-10 10:27:39+00",9.6,11.6,,73.1,242,-356,-23,1021.11,72.3,0
"2021-08-10 10:32:39+00",10.6,12.6,,73.2,264,-374,-9,1021.21,72.4,0
"2021-08-10 10:37:39+00",8.5,10.5,,73.3,210,-299,6,1021.23,72.5,0
"2021-08-10 10:42:39+00",8.9,9.9,,73.4,256,-303,-2,1021.27,72.6,0
"2021-08-10 10:47:39+00",8.3,10.3,,73.4,261,-252,9,1021.3,72.7,0
"2021-08-10 10:52:39+00",8.4,9.4,,73.3,264,-247,2,1021.29,72.7,0
"2021-08-10 10:57:39+00",9.1,10.1,,73.3,302,-268,3,1021.17,72.6,0
"2021-08-10 11:02:39+00",8.2,10.2,,73.3,275,-232,8,1021.12,72.7,0
"2021-08-10 11:07:39+00",8.5,10.5,,73.3,301,-223,8,1021.05,72.7,0
"2021-08-10 11:12:39+00",8.0,9.0,,73.3,272,-227,14,1021.02,72.7,0
"2021-08-10 11:17:39+00",7.7,8.7,,73.3,226,-230,5,1021.12,72.8,0
"2021-08-10 11:22:39+00",8.1,10.1,,73.4,261,-239,5,1021.13,72.8,0
"2021-08-10 11:27:39+00",8.2,10.2,,73.5,232,-258,2,1021.17,72.9,0
"2021-08-10 11:32:39+00",7.5,8.5,,73.5,234,-233,12,1021.19,73,0
"2021-08-10 11:37:39+00",8.4,9.4,,73.4,207,-293,-6,1021.19,73,0
"2021-08-10 11:42:39+00",7.9,8.9,,73.5,201,-280,1,1021.13,73,0
"2021-08-10 11:47:39+00",8.4,9.4,,73.7,216,-289,11,1021.08,73.1,0
"2021-08-10 11:52:39+00",7.8,9.8,,73.8,159,-300,-2,1021.08,73.3,0
"2021-08-10 11:57:39+00",6.8,8.8,,74,163,-248,0,1021.12,73.6,0
"2021-08-10 12:02:39+00",6.3,7.3,,74,155,-220,8,1021.05,73.6,0
"2021-08-10 12:07:39+00",7.0,8.0,,74.1,137,-263,-1,1020.98,73.7,0
"2021-08-10 12:12:39+00",6.7,7.7,,74.2,111,-250,1,1021.02,74,0
"2021-08-10 12:17:39+00",5.5,6.5,,74.3,108,-200,-4,1021,74.1,0
"2021-08-10 12:22:39+00",5.2,7.2,,74.4,105,-194,1,1020.95,74.3,0
"2021-08-10 12:27:39+00",4.8,6.8,,74.7,29,-184,-8,1021.01,74.7,0
"2021-08-10 12:32:39+00",6.8,8.8,,74.9,80,-267,-14,1021.03,74.9,0
"2021-08-10 12:37:39+00",6.0,8.0,,75.2,45,-238,8,1021.02,75.3,0
"2021-08-10 12:42:39+00",6.1,9.1,,75.5,4,-260,-19,1020.96,75.8,0
"2021-08-10 12:47:39+00",4.1,6.1,,75.9,3,-152,16,1020.85,76.2,0
"2021-08-10 12:52:39+00",7.3,10.3,,76,-26,-327,-12,1020.75,76.5,0
"2021-08-10 12:57:39+00",5.7,9.7,,76,-25,-211,3,1020.73,76.4,0
"2021-08-10 13:02:39+00",8.6,12.6,,76.2,11,-370,-35,1020.84,76.7,0
"2021-08-10 13:07:39+00",8.7,11.7,,76.2,-10,-367,-21,1020.79,76.7,0
"2021-08-10 13:12:39+00",8.3,12.3,,76.2,-58,-334,5,1020.79,76.7,0
"2021-08-10 13:17:39+00",6.8,9.8,,76.3,-28,-272,3,1020.76,76.9,0
"2021-08-10 13:22:39+00",7.8,10.8,,76.1,-45,-309,14,1020.72,76.6,0
"2021-08-10 13:27:39+00",9.1,11.1,,76.3,-88,-380,-8,1020.74,76.9,0
"2021-08-10 13:32:39+00",8.4,11.4,,76.1,-109,-353,6,1020.68,76.9,0
"2021-08-10 13:37:39+00",10.4,12.4,,76,-153,-435,-17,1020.67,76.8,0
"2021-08-10 13:42:39+00",11.2,13.2,,76,-179,-451,-13,1020.67,76.9,0
"2021-08-10 13:47:39+00",9.4,13.4,,76.1,-62,-383,18,1020.67,76.9,0
"2021-08-10 13:52:39+00",13.3,16.3,,76.2,-158,-552,-16,1020.64,77.2,0
"2021-08-10 13:57:39+00",12.1,16.1,,76.4,-269,-473,2,1020.61,77.5,0
"2021-08-10 14:02:39+00",12.5,14.5,,76.6,-259,-495,8,1020.56,77.6,0
"2021-08-10 14:07:39+00",14.7,16.7,,76.5,-301,-586,-7,1020.57,77.5,0
"2021-08-10 14:12:39+00",12.2,14.2,,76.7,-293,-468,23,1020.55,77.6,0
"2021-08-10 14:17:39+00",12.6,14.6,,77,-204,-514,7,1020.54,78,0
"2021-08-10 14:22:39+00",13.5,15.5,,77,-339,-512,20,1020.48,78.3,0
"2021-08-10 14:27:39+00",13.4,15.4,,76.8,-276,-532,5,1020.54,78.3,0
"2021-08-10 14:32:39+00",14.4,16.4,,76.8,-254,-586,3,1020.51,78.3,0
"2021-08-10 14:37:39+00",14.5,18.5,,76.9,-326,-573,12,1020.54,78.4,0
"2021-08-10 14:42:39+00",13.1,15.1,,77.1,-196,-538,23,1020.55,78.5,0
"2021-08-10 14:47:39+00",16.2,18.2,,77.1,-343,-651,-19,1020.52,78.7,0
"2021-08-10 14:52:39+00",14.9,17.9,,77.3,-185,-609,11,1020.55,78.8,0
"2021-08-10 14:57:39+00",14.2,17.2,,77.4,-307,-565,30,1020.54,79,0
"2021-08-10 15:02:39+00",16.2,17.2,,77.8,-336,-654,-3,1020.47,79.2,0
"2021-08-10 15:07:39+00",13.3,16.3,,77.8,-268,-540,14,1020.44,79.2,0
"2021-08-10 15:12:39+00",14.9,17.9,,77.7,-293,-600,-14,1020.41,79.4,0
"2021-08-10 15:17:39+00",15.3,17.3,,78.1,-317,-625,11,1020.38,79.6,0
"2021-08-10 15:22:39+00",16.0,18.0,,78,-325,-639,0,1020.37,79.7,0
"2021-08-10 15:27:39+00",13.5,17.5,,78.1,-254,-542,23,1020.37,79.7,0
"2021-08-10 15:32:39+00",14.2,18.2,,78.4,-266,-583,5,1020.43,80.1,0
"2021-08-10 15:37:39+00",15.6,17.6,,78.3,-179,-647,-16,1020.43,80.1,0
"2021-08-10 15:42:39+00",13.5,18.5,,78.6,-177,-546,7,1020.4,80.3,0
"2021-08-10 15:47:39+00",15.8,17.8,,78.7,-262,-646,-15,1020.38,80.5,0
"2021-08-10 15:52:39+00",13.7,16.7,,78.9,-220,-578,5,1020.3,80.8,0
"2021-08-10 15:57:39+00",16.4,18.4,,78.6,-260,-661,-18,1020.37,80.6,0
"2021-08-10 16:02:39+00",15.8,18.8,,78.6,-308,-619,-8,1020.36,80.5,0
"2021-08-10 16:07:39+00",13.7,16.7,,78.9,-277,-547,3,1020.29,80.7,0
"2021-08-10 16:12:39+00",16.2,17.2,,78.8,-284,-662,-7,1020.26,80.7,0
"2021-08-10 16:17:39+00",13.0,16.0,,79,-179,-539,4,1020.22,80.8,0
"2021-08-10 16:22:39+00",12.7,15.7,,79.4,-216,-525,13,1020.19,81.1,0
"2021-08-10 16:27:39+00",13.1,18.1,,79.7,-162,-532,-7,1020.09,81.3,0
"2021-08-10 16:32:39+00",10.1,14.1,,80.1,-70,-429,7,1020.05,81.8,0
"2021-08-10 16:37:39+00",10.7,13.7,,80.6,-227,-444,12,1019.97,82.2,0
"2021-08-10 16:42:39+00",12.3,16.3,,80.9,-119,-509,1,1019.87,82.5,0
"2021-08-10 16:47:39+00",14.6,19.6,,80.8,-190,-597,-5,1019.8,82.5,0
"2021-08-10 16:52:39+00",15.4,18.4,,80.4,-227,-633,-13,1019.82,82.2,0
"2021-08-10 16:57:39+00",14.1,17.1,,80.4,-151,-585,-15,1019.7,82.1,0
"2021-08-10 17:02:39+00",14.6,18.6,,80.6,-174,-614,-11,1019.68,82.2,0
"2021-08-10 17:07:39+00",12.4,16.4,,80.5,-89,-520,9,1019.65,82,0
"2021-08-10 17:12:39+00",13.1,16.1,,80.2,-106,-559,-3,1019.56,81.9,0
"2021-08-10 17:17:39+00",18.6,20.6,,80.1,-271,-765,-18,1019.53,81.9,0
"2021-08-10 17:22:39+00",17.1,21.1,,80,-250,-688,-3,1019.53,81.5,0
"2021-08-10 17:27:39+00",14.5,18.5,,79.8,-119,-625,11,1019.49,81.2,0
"2021-08-10 17:32:39+00",13.4,18.4,,79.7,-86,-565,15,1019.55,81,0
"2021-08-10 17:37:39+00",12.2,17.2,,79.6,-136,-490,30,1019.51,81.1,0
"2021-08-10 17:42:39+00",15.1,19.1,,79.6,-140,-682,1,1019.39,81,0
"2021-08-10 17:47:39+00",15.0,19.0,,79.9,-109,-673,-9,1019.38,81.3,0
"2021-08-10 17:52:39+00",11.0,15.0,,80.2,-117,-449,41,1019.36,81.7,0
"2021-08-10 17:57:39+00",16.5,20.5,,80,-250,-697,10,1019.29,81.6,0
"2021-08-10 18:02:39+00",12.9,19.9,,80,-150,-572,5,1019.19,81.6,0
"2021-08-10 18:07:39+00",15.2,17.2,,80.4,-201,-636,13,1019.12,81.9,0
"2021-08-10 18:12:39+00",16.3,18.3,,80.3,-330,-647,6,1019.08,82.1,0
"2021-08-10 18:17:39+00",14.3,19.3,,80.3,-156,-605,-18,1018.98,82,0
"2021-08-10 18:22:39+00",13.0,19.0,,80.5,-103,-559,1,1018.94,82,0
"2021-08-10 18:27:39+00",13.6,17.6,,80.5,-137,-566,-13,1018.99,82.2,0
"2021-08-10 18:32:39+00",17.6,20.6,,80.6,-213,-733,-35,1018.89,82.2,0
"2021-08-10 18:37:39+00",14.7,18.7,,80.5,-116,-611,-1,1018.84,82.1,0
"2021-08-10 18:42:39+00",12.7,16.7,,80.6,-154,-503,4,1018.82,82.2,0
"2021-08-10 18:47:39+00",14.3,17.3,,80.6,-252,-598,-2,1018.75,82.3,0
"2021-08-10 18:52:39+00",9.6,13.6,,80.7,-84,-382,49,1018.74,82.4,0
"2021-08-10 18:57:39+00",13.8,16.8,,80.4,-169,-580,7,1018.67,82.1,0
"2021-08-10 19:02:39+00",14.2,18.2,,80.6,-153,-622,-13,1018.71,82.1,0
"2021-08-10 19:07:39+00",14.6,18.6,,80.1,-131,-591,7,1018.62,81.7,0
"2021-08-10 19:12:39+00",16.2,19.2,,80.2,-191,-673,-19,1018.56,81.8,0
"2021-08-10 19:17:39+00",17.2,21.2,,80.1,-163,-707,-25,1018.47,81.9,0
"2021-08-10 19:22:39+00",17.9,21.9,,80.1,-262,-734,-5,1018.52,81.8,0
"2021-08-10 19:27:39+00",11.9,15.9,,80.5,-158,-504,23,1018.64,81.9,0
"2021-08-10 19:32:39+00",14.2,20.2,,80.3,-151,-564,25,1018.49,81.7,0
"2021-08-10 19:37:39+00",18.4,22.4,,80.1,-294,-775,-8,1018.41,81.8,0
"2021-08-10 19:42:39+00",18.7,21.7,,79.6,-249,-777,-20,1018.33,81.4,0
"2021-08-10 19:47:39+00",14.4,20.4,,80.1,-92,-630,7,1018.29,81.5,0
"2021-08-10 19:52:39+00",16.1,20.1,,80.3,-146,-678,-4,1018.23,81.7,0
"2021-08-10 19:57:39+00",14.7,19.7,,80.5,-145,-608,20,1018.3,81.8,0
"2021-08-10 20:02:39+00",13.4,19.4,,80.2,-182,-520,25,1018.19,81.6,0
"2021-08-10 20:07:39+00",18.3,22.3,,80.1,-217,-778,-24,1018.24,81.5,0
"2021-08-10 20:12:39+00",16.3,20.3,,79.9,-187,-675,-24,1018.2,81.3,0
"2021-08-10 20:17:39+00",14.6,20.6,,79.9,-168,-607,-1,1018.09,81.2,0
"2021-08-10 20:22:39+00",16.0,21.0,,79.9,-191,-652,4,1018.01,81.3,0
"2021-08-10 20:27:39+00",14.0,18.0,,80,-145,-585,6,1018.07,81.3,0
"2021-08-10 20:32:39+00",16.6,19.6,,79.8,-152,-688,-7,1017.98,81.2,0
"2021-08-10 20:37:39+00",11.4,17.4,,80,-119,-486,26,1017.91,81,0
"2021-08-10 20:42:39+00",15.6,20.6,,80,-246,-681,7,1017.82,81.1,0
"2021-08-10 20:47:39+00",12.3,20.3,,79.9,-136,-522,19,1017.83,81,0
"2021-08-10 20:52:39+00",16.8,20.8,,79.6,-210,-721,-17,1017.83,80.7,0
"2021-08-10 20:57:39+00",11.1,18.1,,79.7,-83,-424,24,1017.91,80.9,0
"2021-08-10 21:02:39+00",12.9,17.9,,79.9,-120,-538,10,1017.88,80.9,0
"2021-08-10 21:07:39+00",15.7,18.7,,79.4,-201,-662,10,1017.79,80.5,0
"2021-08-10 21:12:39+00",17.9,21.9,,79.2,-224,-775,-19,1017.73,80.1,0
"2021-08-10 21:17:39+00",12.6,17.6,,79.6,-105,-516,8,1017.83,80.4,0
"2021-08-10 21:22:39+00",15.4,20.4,,79.2,-73,-647,13,1017.87,80,0
"2021-08-10 21:27:39+00",13.1,19.1,,79.1,-84,-546,1,1017.88,79.9,0
"2021-08-10 21:32:39+00",14.3,17.3,,79.2,-118,-632,2,1017.82,80.1,0
"2021-08-10 21:37:39+00",14.4,18.4,,78.9,-118,-606,5,1017.79,79.7,0
"2021-08-10 21:42:39+00",15.6,20.6,,79.1,-137,-673,7,1017.8,79.8,0
"2021-08-10 21:47:39+00",18.5,21.5,,79.1,-286,-753,-18,1017.81,79.9,0
"2021-08-10 21:52:39+00",18.4,23.4,,79.1,-316,-771,14,1017.83,79.7,0
"2021-08-10 21:57:39+00",16.7,18.7,,79,-241,-690,-3,1017.89,79.7,0
"2021-08-10 22:02:39+00",17.6,19.6,,79.1,-432,-686,22,1017.99,79.9,0
"2021-08-10 22:07:39+00",18.6,22.6,,79.1,-293,-790,-3,1017.97,79.7,0
"2021-08-10 22:12:39+00",21.6,24.6,,78.9,-419,-885,-7,1017.87,79.5,0
"2021-08-10 22:17:39+00",17.0,22.0,,79,-333,-697,9,1017.84,79.4,0
"2021-08-10 22:22:39+00",23.2,25.2,,79,-445,-943,-12,1017.81,79.6,0
"2021-08-10 22:27:39+00",16.1,20.1,,79.1,-360,-636,38,1017.64,79.6,0
"2021-08-10 22:32:39+00",21.0,25.0,,78.9,-367,-859,0,1017.44,79.3,0
"2021-08-10 22:37:39+00",19.5,22.5,,78.6,-378,-804,-9,1017.44,79,0
"2021-08-10 22:42:39+00",19.9,23.9,,78.6,-405,-795,10,1017.39,78.9,0
"2021-08-10 22:47:39+00",19.6,24.6,,78.5,-379,-792,0,1017.11,78.8,0
"2021-08-10 22:52:39+00",19.8,21.8,,78.3,-404,-795,-7,1017.29,78.6,0
"2021-08-10 22:57:39+00",21.1,25.1,,78.2,-348,-861,-5,1017.09,78.3,0
"2021-08-10 23:02:39+00",18.8,22.8,,78.1,-318,-765,-31,1017.05,78.2,0
"2021-08-10 23:07:39+00",17.6,19.6,,78,-305,-720,-10,1017.05,78.1,0
"2021-08-10 23:12:39+00",19.6,22.6,,78,-358,-791,-6,1017.12,78,0
"2021-08-10 23:17:39+00",22.8,26.8,,77.9,-382,-913,-3,1017.21,77.8,0
"2021-08-10 23:22:39+00",15.2,20.2,,77.7,-262,-661,-31,1017.25,77.6,0
"2021-08-10 23:27:39+00",19.7,22.7,,77.7,-407,-801,-4,1017.47,77.5,0
"2021-08-10 23:32:39+00",15.6,19.6,,77.6,-359,-644,11,1017.63,77.4,0
"2021-08-10 23:37:39+00",15.2,19.2,,77.6,-363,-593,25,1017.59,77.3,0
"2021-08-10 23:42:39+00",18.3,19.3,,77.5,-429,-726,3,1017.65,77.2,0
"2021-08-10 23:47:39+00",19.3,23.3,,77.5,-380,-777,3,1017.59,77.1,0
"2021-08-10 23:52:39+00",13.9,15.9,,77.3,-268,-562,28,1017.7,77,0
"2021-08-10 23:57:39+00",17.9,21.9,,77.1,-307,-728,-6,1017.62,76.8,0
